Saint Bonnet de Bellac- Haute Vienne - France
Donnes mto: vendredi, 20/01/2012
Date Horaire Temp. E. Hum. E. P.atmo. Pluie Vent Direction Direction Ensoleilleme Solaire P. de rose Temp au vent Rafales
20/01/2012 00:00 9,4 C 93 % 1027,9 hPa 0,1 mm 4,0 km/h (1 Bft) O-SO 247 0 min 0 W/m 8,3 C 9,4 C 4,0 km/h (1 Bft)
20/01/2012 00:10 9,4 C 94 % 1027,8 hPa 0,2 mm 7,6 km/h (2 Bft) O-SO 247 0 min 0 W/m 8,5 C 8,4 C 11,5 km/h (2 Bft)
20/01/2012 00:20 9,4 C 94 % 1027,7 hPa 0,1 mm 7,9 km/h (2 Bft) S-SO 202 0 min 0 W/m 8,5 C 8,3 C 9,7 km/h (2 Bft)
20/01/2012 00:30 9,4 C 94 % 1027,5 hPa 0,2 mm 7,2 km/h (2 Bft) SO 225 0 min 0 W/m 8,5 C 8,5 C 13,3 km/h (3 Bft)
20/01/2012 00:40 9,4 C 94 % 1027,5 hPa 0,1 mm 4,7 km/h (1 Bft) O-SO 247 0 min 0 W/m 8,5 C 9,2 C 9,4 km/h (2 Bft)
20/01/2012 00:50 9,4 C 95 % 1027,4 hPa 0,1 mm 6,5 km/h (2 Bft) O-SO 247 0 min 0 W/m 8,6 C 8,7 C 6,5 km/h (2 Bft)
20/01/2012 01:00 9,5 C 95 % 1027,2 hPa 0,0 mm 7,2 km/h (2 Bft) S-SO 202 0 min 0 W/m 8,7 C 8,6 C 13,3 km/h (3 Bft)
20/01/2012 01:10 9,5 C 95 % 1027,2 hPa 0,1 mm 6,8 km/h (2 Bft) S-SO 202 0 min 0 W/m 8,7 C 8,7 C 13,7 km/h (3 Bft)
20/01/2012 01:20 9,5 C 95 % 1027,1 hPa 0,1 mm 6,8 km/h (2 Bft) SO 225 0 min 0 W/m 8,7 C 8,7 C 10,8 km/h (2 Bft)
20/01/2012 01:30 9,6 C 95 % 1027,3 hPa 0,0 mm 3,6 km/h (1 Bft) S-SO 202 0 min 0 W/m 8,8 C 9,6 C 8,6 km/h (2 Bft)
20/01/2012 01:40 9,6 C 95 % 1027,2 hPa 0,0 mm 2,2 km/h (1 Bft) S-SO 202 0 min 0 W/m 8,8 C 9,6 C 7,6 km/h (2 Bft)
20/01/2012 01:50 9,6 C 95 % 1027,2 hPa 0,0 mm 1,4 km/h (1 Bft) O-SO 247 0 min 0 W/m 8,8 C 9,6 C 3,2 km/h (1 Bft)
20/01/2012 02:02 9,7 C 95 % 1027,3 hPa 0,1 mm 5,4 km/h (2 Bft) O-SO 247 0 min 0 W/m 8,9 C 9,3 C 15,5 km/h (3 Bft)
20/01/2012 02:10 9,7 C 95 % 1027,2 hPa 0,1 mm 2,9 km/h (1 Bft) SO 225 0 min 0 W/m 8,9 C 9,7 C 11,9 km/h (2 Bft)
20/01/2012 02:20 9,7 C 95 % 1027,2 hPa 0,1 mm 0,4 km/h (0 Bft) O-SO 247 0 min 0 W/m 8,9 C 9,7 C 0,4 km/h (0 Bft)
20/01/2012 02:30 9,8 C 95 % 1027,4 hPa 0,1 mm 5,8 km/h (2 Bft) SO 225 0 min 0 W/m 9,0 C 9,3 C 11,2 km/h (2 Bft)
20/01/2012 02:40 9,8 C 95 % 1027,4 hPa 0,0 mm 4,0 km/h (1 Bft) O-SO 247 0 min 0 W/m 9,0 C 9,8 C 4,0 km/h (1 Bft)
20/01/2012 02:50 9,8 C 95 % 1027,6 hPa 0,0 mm 3,2 km/h (1 Bft) SO 225 0 min 0 W/m 9,0 C 9,8 C 8,3 km/h (2 Bft)
20/01/2012 03:00 9,9 C 95 % 1027,7 hPa 0,0 mm 5,0 km/h (1 Bft) NO 315 0 min 0 W/m 9,1 C 9,6 C 9,7 km/h (2 Bft)
20/01/2012 03:10 9,9 C 95 % 1027,6 hPa 0,0 mm 2,2 km/h (1 Bft) O 270 0 min 0 W/m 9,1 C 9,9 C 3,6 km/h (1 Bft)
20/01/2012 03:20 9,9 C 95 % 1027,6 hPa 0,1 mm 4,3 km/h (1 Bft) O 270 0 min 0 W/m 9,1 C 9,9 C 4,3 km/h (1 Bft)
20/01/2012 03:30 9,9 C 95 % 1027,3 hPa 0,0 mm 4,0 km/h (1 Bft) O 270 0 min 0 W/m 9,1 C 9,9 C 7,9 km/h (2 Bft)
20/01/2012 03:40 9,8 C 95 % 1027,2 hPa 0,0 mm 5,4 km/h (2 Bft) O 270 0 min 0 W/m 9,0 C 9,4 C 6,1 km/h (2 Bft)
20/01/2012 03:50 9,8 C 95 % 1027,3 hPa 0,0 mm 4,3 km/h (1 Bft) S-SO 202 0 min 0 W/m 9,0 C 9,8 C 8,3 km/h (2 Bft)
20/01/2012 04:00 9,8 C 95 % 1027,2 hPa 0,0 mm 6,5 km/h (2 Bft) O-SO 247 0 min 0 W/m 9,0 C 9,1 C 14,0 km/h (3 Bft)
20/01/2012 04:10 9,8 C 95 % 1027,1 hPa 0,0 mm 4,0 km/h (1 Bft) O-SO 247 0 min 0 W/m 9,0 C 9,8 C 6,5 km/h (2 Bft)
20/01/2012 04:20 9,8 C 95 % 1027,0 hPa 0,0 mm 3,2 km/h (1 Bft) O 270 0 min 0 W/m 9,0 C 9,8 C 8,6 km/h (2 Bft)
20/01/2012 04:30 9,7 C 95 % 1027,0 hPa 0,0 mm 1,8 km/h (1 Bft) O-SO 247 0 min 0 W/m 8,9 C 9,7 C 6,1 km/h (2 Bft)
20/01/2012 04:40 9,6 C 95 % 1027,1 hPa 0,0 mm 1,4 km/h (1 Bft) O 270 0 min 0 W/m 8,8 C 9,6 C 6,1 km/h (2 Bft)
20/01/2012 04:50 9,5 C 95 % 1027,0 hPa 0,0 mm 7,2 km/h (2 Bft) O 270 0 min 0 W/m 8,7 C 8,6 C 15,8 km/h (3 Bft)
20/01/2012 05:00 9,4 C 95 % 1027,0 hPa 0,0 mm 8,6 km/h (2 Bft) NO 315 0 min 0 W/m 8,6 C 8,2 C 15,5 km/h (3 Bft)
20/01/2012 05:10 9,4 C 95 % 1027,3 hPa 0,0 mm 3,6 km/h (1 Bft) O 270 0 min 0 W/m 8,6 C 9,4 C 7,9 km/h (2 Bft)
20/01/2012 05:20 9,3 C 95 % 1027,4 hPa 0,0 mm 5,4 km/h (2 Bft) NO 315 0 min 0 W/m 8,5 C 8,8 C 8,6 km/h (2 Bft)
20/01/2012 05:30 9,1 C 95 % 1027,5 hPa 0,0 mm 6,8 km/h (2 Bft) O-NO 292 0 min 0 W/m 8,3 C 8,2 C 8,6 km/h (2 Bft)
20/01/2012 05:40 9,1 C 95 % 1027,5 hPa 0,0 mm 6,1 km/h (2 Bft) O-SO 247 0 min 0 W/m 8,3 C 8,4 C 10,8 km/h (2 Bft)
20/01/2012 05:50 9,1 C 95 % 1027,3 hPa 0,0 mm 2,5 km/h (1 Bft) O 270 0 min 0 W/m 8,3 C 9,1 C 7,2 km/h (2 Bft)
20/01/2012 06:00 8,9 C 95 % 1027,5 hPa 0,0 mm 5,4 km/h (2 Bft) NO 315 0 min 0 W/m 8,1 C 8,4 C 11,9 km/h (2 Bft)
20/01/2012 06:10 8,9 C 95 % 1027,5 hPa 0,0 mm 6,1 km/h (2 Bft) NO 315 0 min 0 W/m 8,1 C 8,2 C 12,2 km/h (2 Bft)
20/01/2012 06:20 8,8 C 95 % 1027,5 hPa 0,0 mm 4,3 km/h (1 Bft) NO 315 0 min 0 W/m 8,0 C 8,8 C 8,6 km/h (2 Bft)
20/01/2012 06:30 8,6 C 95 % 1027,3 hPa 0,0 mm 0,4 km/h (0 Bft) NO 315 0 min 0 W/m 7,8 C 8,6 C 3,6 km/h (1 Bft)
20/01/2012 06:40 8,4 C 95 % 1027,3 hPa 0,0 mm 8,3 km/h (2 Bft) NO 315 0 min 0 W/m 7,6 C 7,1 C 8,3 km/h (2 Bft)
20/01/2012 06:50 8,2 C 95 % 1027,3 hPa 0,0 mm 2,9 km/h (1 Bft) N-NO 337 0 min 0 W/m 7,4 C 8,2 C 6,5 km/h (2 Bft)
20/01/2012 07:00 7,8 C 94 % 1027,5 hPa 0,0 mm 0,7 km/h (0 Bft) N-NO 337 0 min 0 W/m 6,9 C 7,8 C 0,7 km/h (0 Bft)
20/01/2012 07:10 7,4 C 94 % 1027,7 hPa 0,0 mm 0,0 km/h (0 Bft) NO 315 0 min 0 W/m 6,5 C 7,4 C 0,0 km/h (0 Bft)
20/01/2012 07:20 7,0 C 94 % 1028,0 hPa 0,0 mm 1,1 km/h (1 Bft) O-NO 292 0 min 0 W/m 6,1 C 7,0 C 1,1 km/h (1 Bft)
20/01/2012 07:30 6,6 C 93 % 1028,3 hPa 0,0 mm 0,0 km/h (0 Bft) N-NO 337 0 min 0 W/m 5,6 C 6,6 C 0,0 km/h (0 Bft)
20/01/2012 07:40 6,4 C 93 % 1028,5 hPa 0,0 mm 0,4 km/h (0 Bft) NO 315 0 min 0 W/m 5,4 C 6,4 C 3,6 km/h (1 Bft)
20/01/2012 07:50 6,3 C 94 % 1028,8 hPa 0,0 mm 3,6 km/h (1 Bft) O-NO 292 0 min 0 W/m 5,4 C 6,3 C 6,1 km/h (2 Bft)
20/01/2012 08:00 6,4 C 94 % 1029,0 hPa 0,0 mm 2,5 km/h (1 Bft) O-NO 292 0 min 0 W/m 5,5 C 6,4 C 8,6 km/h (2 Bft)
20/01/2012 08:10 6,4 C 94 % 1029,0 hPa 0,0 mm 6,8 km/h (2 Bft) O-SO 247 0 min 0 W/m 5,5 C 5,1 C 10,8 km/h (2 Bft)
20/01/2012 08:20 6,3 C 94 % 1029,4 hPa 0,0 mm 4,0 km/h (1 Bft) O-NO 292 0 min 0 W/m 5,4 C 6,3 C 4,0 km/h (1 Bft)
20/01/2012 08:30 6,4 C 94 % 1029,4 hPa 0,0 mm 7,6 km/h (2 Bft) O 270 0 min 0 W/m 5,5 C 4,9 C 8,3 km/h (2 Bft)
20/01/2012 08:40 6,5 C 94 % 1029,6 hPa 0,0 mm 0,4 km/h (0 Bft) O-SO 247 0 min 0 W/m 5,6 C 6,5 C 3,6 km/h (1 Bft)
20/01/2012 08:50 6,6 C 94 % 1029,7 hPa 0,0 mm 7,2 km/h (2 Bft) O 270 2 min 0 W/m 5,7 C 5,2 C 9,4 km/h (2 Bft)
20/01/2012 09:00 6,6 C 94 % 1029,6 hPa 0,0 mm 1,1 km/h (1 Bft) O 270 2 min 0 W/m 5,7 C 6,6 C 1,1 km/h (1 Bft)
20/01/2012 09:10 6,6 C 94 % 1029,5 hPa 0,0 mm 1,1 km/h (1 Bft) O-SO 247 2 min 0 W/m 5,7 C 6,6 C 3,6 km/h (1 Bft)
20/01/2012 09:20 6,6 C 94 % 1029,3 hPa 0,0 mm 0,7 km/h (0 Bft) O 270 2 min 0 W/m 5,7 C 6,6 C 3,2 km/h (1 Bft)
20/01/2012 09:30 6,6 C 94 % 1029,4 hPa 0,0 mm 1,4 km/h (1 Bft) O-SO 247 2 min 0 W/m 5,7 C 6,6 C 4,3 km/h (1 Bft)
20/01/2012 09:40 6,5 C 94 % 1029,1 hPa 0,0 mm 0,4 km/h (0 Bft) O-SO 247 2 min 0 W/m 5,6 C 6,5 C 0,4 km/h (0 Bft)
20/01/2012 09:50 6,5 C 94 % 1029,3 hPa 0,0 mm 2,2 km/h (1 Bft) O 270 2 min 0 W/m 5,6 C 6,5 C 10,1 km/h (2 Bft)
20/01/2012 10:00 6,6 C 94 % 1029,3 hPa 0,0 mm 1,1 km/h (1 Bft) O-SO 247 2 min 0 W/m 5,7 C 6,6 C 4,3 km/h (1 Bft)
20/01/2012 10:10 6,8 C 94 % 1029,3 hPa 0,0 mm 3,2 km/h (1 Bft) S-SO 202 2 min 0 W/m 5,9 C 6,8 C 9,7 km/h (2 Bft)
20/01/2012 10:20 7,0 C 94 % 1029,2 hPa 0,0 mm 4,0 km/h (1 Bft) O-SO 247 2 min 0 W/m 6,1 C 7,0 C 9,4 km/h (2 Bft)
20/01/2012 10:30 7,1 C 93 % 1029,2 hPa 0,0 mm 3,2 km/h (1 Bft) O 270 2 min 0 W/m 6,0 C 7,1 C 11,2 km/h (2 Bft)
20/01/2012 10:40 7,2 C 93 % 1029,5 hPa 0,0 mm 3,2 km/h (1 Bft) O-SO 247 2 min 0 W/m 6,1 C 7,2 C 7,9 km/h (2 Bft)
20/01/2012 10:50 7,3 C 93 % 1029,6 hPa 0,0 mm 5,8 km/h (2 Bft) O 270 2 min 0 W/m 6,2 C 6,4 C 13,3 km/h (3 Bft)
20/01/2012 11:00 7,4 C 92 % 1029,8 hPa 0,0 mm 1,4 km/h (1 Bft) O-SO 247 2 min 0 W/m 6,2 C 7,4 C 7,9 km/h (2 Bft)
20/01/2012 11:10 7,4 C 92 % 1029,9 hPa 0,0 mm 0,4 km/h (0 Bft) O-NO 292 2 min 0 W/m 6,2 C 7,4 C 4,0 km/h (1 Bft)
20/01/2012 11:20 7,4 C 92 % 1029,9 hPa 0,0 mm 5,8 km/h (2 Bft) O 270 2 min 0 W/m 6,2 C 6,5 C 11,2 km/h (2 Bft)
20/01/2012 11:30 7,7 C 92 % 1029,8 hPa 0,0 mm 4,3 km/h (1 Bft) O-SO 247 2 min 0 W/m 6,5 C 7,7 C 13,0 km/h (3 Bft)
20/01/2012 11:40 8,1 C 91 % 1029,6 hPa 0,0 mm 1,1 km/h (1 Bft) O-SO 247 2 min 0 W/m 6,7 C 8,1 C 6,1 km/h (2 Bft)
20/01/2012 11:50 8,8 C 90 % 1029,3 hPa 0,0 mm 8,6 km/h (2 Bft) SO 225 2 min 0 W/m 7,3 C 7,5 C 14,8 km/h (3 Bft)
20/01/2012 12:00 9,2 C 89 % 1029,5 hPa 0,0 mm 4,0 km/h (1 Bft) O 270 2 min 0 W/m 7,5 C 9,2 C 6,5 km/h (2 Bft)
20/01/2012 12:10 9,7 C 87 % 1029,5 hPa 0,0 mm 2,5 km/h (1 Bft) SO 225 2 min 0 W/m 7,6 C 9,7 C 5,8 km/h (2 Bft)
20/01/2012 12:20 9,5 C 86 % 1029,3 hPa 0,0 mm 3,2 km/h (1 Bft) O 270 2 min 0 W/m 7,3 C 9,5 C 7,9 km/h (2 Bft)
20/01/2012 12:30 9,4 C 87 % 1029,2 hPa 0,0 mm 0,4 km/h (0 Bft) O-SO 247 2 min 0 W/m 7,3 C 9,4 C 3,2 km/h (1 Bft)
20/01/2012 12:40 9,7 C 86 % 1029,0 hPa 0,0 mm 5,8 km/h (2 Bft) O-NO 292 2 min 0 W/m 7,5 C 9,2 C 6,8 km/h (2 Bft)
20/01/2012 12:50 9,8 C 85 % 1029,0 hPa 0,0 mm 6,8 km/h (2 Bft) O 270 2 min 0 W/m 7,4 C 9,0 C 12,6 km/h (3 Bft)
20/01/2012 13:00 9,7 C 85 % 1028,8 hPa 0,0 mm 2,9 km/h (1 Bft) NO 315 2 min 0 W/m 7,3 C 9,7 C 4,3 km/h (1 Bft)
20/01/2012 13:10 9,5 C 84 % 1028,7 hPa 0,0 mm 12,2 km/h (2 Bft) O-SO 247 2 min 0 W/m 6,9 C 7,7 C 25,9 km/h (4 Bft)
20/01/2012 13:20 9,5 C 85 % 1028,6 hPa 0,0 mm 2,2 km/h (1 Bft) O 270 2 min 0 W/m 7,1 C 9,5 C 7,6 km/h (2 Bft)
20/01/2012 13:30 9,5 C 84 % 1028,4 hPa 0,0 mm 4,3 km/h (1 Bft) O-SO 247 2 min 0 W/m 6,9 C 9,5 C 8,3 km/h (2 Bft)
20/01/2012 13:40 9,6 C 84 % 1028,1 hPa 0,0 mm 0,0 km/h (0 Bft) O 270 2 min 0 W/m 7,0 C 9,6 C 0,0 km/h (0 Bft)
20/01/2012 13:50 9,6 C 84 % 1027,9 hPa 0,0 mm 8,3 km/h (2 Bft) O-SO 247 2 min 0 W/m 7,0 C 8,5 C 20,9 km/h (4 Bft)
20/01/2012 14:00 9,6 C 84 % 1027,8 hPa 0,0 mm 9,7 km/h (2 Bft) SO 225 2 min 0 W/m 7,0 C 8,2 C 14,8 km/h (3 Bft)
20/01/2012 14:10 9,8 C 83 % 1028,0 hPa 0,0 mm 10,4 km/h (2 Bft) O 270 2 min 0 W/m 7,1 C 8,3 C 16,9 km/h (3 Bft)
20/01/2012 14:20 9,8 C 83 % 1028,0 hPa 0,0 mm 1,8 km/h (1 Bft) O-SO 247 2 min 0 W/m 7,1 C 9,8 C 4,0 km/h (1 Bft)
20/01/2012 14:30 9,8 C 83 % 1027,8 hPa 0,0 mm 2,5 km/h (1 Bft) SO 225 2 min 0 W/m 7,1 C 9,8 C 6,5 km/h (2 Bft)
20/01/2012 14:40 9,8 C 83 % 1027,7 hPa 0,0 mm 3,2 km/h (1 Bft) O-SO 247 2 min 0 W/m 7,1 C 9,8 C 6,8 km/h (2 Bft)
20/01/2012 14:50 9,6 C 81 % 1027,5 hPa 0,0 mm 5,8 km/h (2 Bft) O 270 2 min 0 W/m 6,5 C 9,1 C 5,8 km/h (2 Bft)
20/01/2012 15:00 9,6 C 82 % 1027,3 hPa 0,0 mm 4,3 km/h (1 Bft) O-SO 247 2 min 0 W/m 6,7 C 9,6 C 10,8 km/h (2 Bft)
20/01/2012 15:10 9,5 C 81 % 1027,3 hPa 0,0 mm 11,9 km/h (2 Bft) O-NO 292 2 min 0 W/m 6,4 C 7,7 C 11,9 km/h (2 Bft)
20/01/2012 15:20 9,4 C 81 % 1027,3 hPa 0,0 mm 5,0 km/h (1 Bft) O-SO 247 2 min 0 W/m 6,3 C 9,1 C 10,4 km/h (2 Bft)
20/01/2012 15:30 9,4 C 82 % 1027,4 hPa 0,0 mm 3,2 km/h (1 Bft) O 270 2 min 0 W/m 6,5 C 9,4 C 11,5 km/h (2 Bft)
20/01/2012 15:40 9,4 C 82 % 1027,4 hPa 0,0 mm 7,9 km/h (2 Bft) O-SO 247 2 min 0 W/m 6,5 C 8,3 C 14,0 km/h (3 Bft)
20/01/2012 15:50 9,3 C 82 % 1027,6 hPa 0,0 mm 4,0 km/h (1 Bft) O-SO 247 2 min 0 W/m 6,4 C 9,3 C 7,2 km/h (2 Bft)
20/01/2012 16:00 9,2 C 82 % 1027,6 hPa 0,0 mm 0,4 km/h (0 Bft) O-SO 247 2 min 0 W/m 6,3 C 9,2 C 0,4 km/h (0 Bft)
20/01/2012 16:10 9,1 C 82 % 1027,7 hPa 0,0 mm 4,3 km/h (1 Bft) O 270 2 min 0 W/m 6,2 C 9,1 C 13,0 km/h (3 Bft)
20/01/2012 16:20 8,9 C 82 % 1027,7 hPa 0,0 mm 2,5 km/h (1 Bft) O-SO 247 2 min 0 W/m 6,0 C 8,9 C 4,0 km/h (1 Bft)
20/01/2012 16:30 8,9 C 83 % 1027,5 hPa 0,0 mm 1,4 km/h (1 Bft) SO 225 2 min 0 W/m 6,2 C 8,9 C 9,7 km/h (2 Bft)
20/01/2012 16:40 8,8 C 83 % 1027,5 hPa 0,0 mm 7,9 km/h (2 Bft) O-SO 247 2 min 0 W/m 6,1 C 7,6 C 16,9 km/h (3 Bft)
20/01/2012 16:50 8,8 C 84 % 1027,4 hPa 0,0 mm 4,0 km/h (1 Bft) O 270 2 min 0 W/m 6,2 C 8,8 C 4,0 km/h (1 Bft)
20/01/2012 17:00 8,8 C 84 % 1027,5 hPa 0,0 mm 0,7 km/h (0 Bft) O 270 2 min 0 W/m 6,2 C 8,8 C 0,7 km/h (0 Bft)
20/01/2012 17:10 8,8 C 84 % 1027,5 hPa 0,0 mm 2,5 km/h (1 Bft) SO 225 2 min 0 W/m 6,2 C 8,8 C 3,2 km/h (1 Bft)
20/01/2012 17:20 8,7 C 84 % 1027,4 hPa 0,0 mm 3,2 km/h (1 Bft) O-SO 247 2 min 0 W/m 6,2 C 8,7 C 13,0 km/h (3 Bft)
20/01/2012 17:30 8,6 C 85 % 1027,5 hPa 0,0 mm 4,0 km/h (1 Bft) O-SO 247 2 min 0 W/m 6,2 C 8,6 C 10,8 km/h (2 Bft)
20/01/2012 17:40 8,6 C 85 % 1027,4 hPa 0,0 mm 6,5 km/h (2 Bft) O-SO 247 0 min 0 W/m 6,2 C 7,7 C 6,5 km/h (2 Bft)
20/01/2012 17:50 8,6 C 86 % 1027,4 hPa 0,0 mm 4,0 km/h (1 Bft) SO 225 0 min 0 W/m 6,4 C 8,6 C 11,9 km/h (2 Bft)
20/01/2012 18:00 8,6 C 86 % 1027,5 hPa 0,0 mm 2,2 km/h (1 Bft) O-SO 247 0 min 0 W/m 6,4 C 8,6 C 7,6 km/h (2 Bft)
20/01/2012 18:10 8,5 C 87 % 1027,4 hPa 0,0 mm 6,8 km/h (2 Bft) O 270 0 min 0 W/m 6,5 C 7,5 C 11,5 km/h (2 Bft)
20/01/2012 18:20 8,5 C 87 % 1027,4 hPa 0,0 mm 4,3 km/h (1 Bft) O-SO 247 0 min 0 W/m 6,5 C 8,5 C 4,3 km/h (1 Bft)
20/01/2012 18:30 8,5 C 87 % 1027,4 hPa 0,0 mm 4,3 km/h (1 Bft) O 270 0 min 0 W/m 6,5 C 8,5 C 4,3 km/h (1 Bft)
20/01/2012 18:40 8,6 C 87 % 1027,6 hPa 0,0 mm 7,2 km/h (2 Bft) O-SO 247 0 min 0 W/m 6,6 C 7,5 C 7,2 km/h (2 Bft)
20/01/2012 18:50 8,5 C 88 % 1027,6 hPa 0,0 mm 3,6 km/h (1 Bft) O 270 0 min 0 W/m 6,6 C 8,5 C 13,0 km/h (3 Bft)
20/01/2012 19:00 8,4 C 88 % 1027,6 hPa 0,0 mm 2,2 km/h (1 Bft) SO 225 0 min 0 W/m 6,5 C 8,4 C 3,2 km/h (1 Bft)
20/01/2012 19:10 8,4 C 88 % 1027,6 hPa 0,0 mm 1,1 km/h (1 Bft) O-SO 247 0 min 0 W/m 6,5 C 8,4 C 4,0 km/h (1 Bft)
20/01/2012 19:20 8,4 C 88 % 1027,6 hPa 0,0 mm 0,0 km/h (0 Bft) O-SO 247 0 min 0 W/m 6,5 C 8,4 C 0,0 km/h (0 Bft)
20/01/2012 19:30 8,3 C 89 % 1027,5 hPa 0,0 mm 3,6 km/h (1 Bft) SO 225 0 min 0 W/m 6,6 C 8,3 C 3,6 km/h (1 Bft)
20/01/2012 19:40 8,2 C 89 % 1027,4 hPa 0,0 mm 0,0 km/h (0 Bft) O-SO 247 0 min 0 W/m 6,5 C 8,2 C 0,0 km/h (0 Bft)
20/01/2012 19:50 8,1 C 89 % 1027,5 hPa 0,0 mm 4,0 km/h (1 Bft) SO 225 0 min 0 W/m 6,4 C 8,1 C 10,4 km/h (2 Bft)
20/01/2012 20:00 8,1 C 90 % 1027,6 hPa 0,0 mm 1,1 km/h (1 Bft) O-SO 247 0 min 0 W/m 6,6 C 8,1 C 4,3 km/h (1 Bft)
20/01/2012 20:10 8,2 C 90 % 1027,5 hPa 0,0 mm 3,2 km/h (1 Bft) O 270 0 min 0 W/m 6,7 C 8,2 C 9,4 km/h (2 Bft)
20/01/2012 20:20 8,2 C 90 % 1027,5 hPa 0,0 mm 1,8 km/h (1 Bft) SO 225 0 min 0 W/m 6,7 C 8,2 C 4,3 km/h (1 Bft)
20/01/2012 20:30 8,3 C 90 % 1027,4 hPa 0,0 mm 0,7 km/h (0 Bft) O-SO 247 0 min 0 W/m 6,8 C 8,3 C 3,2 km/h (1 Bft)
20/01/2012 20:40 8,3 C 90 % 1027,5 hPa 0,0 mm 5,8 km/h (2 Bft) SO 225 0 min 0 W/m 6,8 C 7,6 C 9,7 km/h (2 Bft)
20/01/2012 20:50 8,3 C 90 % 1027,5 hPa 0,0 mm 0,7 km/h (0 Bft) SO 225 0 min 0 W/m 6,8 C 8,3 C 3,6 km/h (1 Bft)
20/01/2012 21:00 8,3 C 90 % 1027,5 hPa 0,0 mm 2,9 km/h (1 Bft) S-SO 202 0 min 0 W/m 6,8 C 8,3 C 7,2 km/h (2 Bft)
20/01/2012 21:10 8,3 C 90 % 1027,4 hPa 0,0 mm 4,7 km/h (1 Bft) O-SO 247 0 min 0 W/m 6,8 C 7,9 C 11,2 km/h (2 Bft)
20/01/2012 21:20 8,3 C 90 % 1027,5 hPa 0,0 mm 5,8 km/h (2 Bft) O-SO 247 0 min 0 W/m 6,8 C 7,6 C 12,6 km/h (3 Bft)
20/01/2012 21:30 8,3 C 90 % 1027,6 hPa 0,0 mm 5,4 km/h (2 Bft) O-SO 247 0 min 0 W/m 6,8 C 7,7 C 16,9 km/h (3 Bft)
20/01/2012 21:40 8,2 C 90 % 1027,6 hPa 0,0 mm 4,7 km/h (1 Bft) O 270 0 min 0 W/m 6,7 C 7,8 C 10,8 km/h (2 Bft)
20/01/2012 21:50 8,1 C 90 % 1027,5 hPa 0,0 mm 2,2 km/h (1 Bft) O-SO 247 0 min 0 W/m 6,6 C 8,1 C 6,1 km/h (2 Bft)
20/01/2012 22:00 8,1 C 90 % 1027,6 hPa 0,0 mm 2,2 km/h (1 Bft) O-SO 247 0 min 0 W/m 6,6 C 8,1 C 9,7 km/h (2 Bft)
20/01/2012 22:10 8,0 C 90 % 1027,7 hPa 0,0 mm 0,0 km/h (0 Bft) O-NO 292 0 min 0 W/m 6,5 C 8,0 C 0,0 km/h (0 Bft)
20/01/2012 22:20 7,9 C 90 % 1027,6 hPa 0,0 mm 1,8 km/h (1 Bft) SO 225 0 min 0 W/m 6,4 C 7,9 C 3,6 km/h (1 Bft)
20/01/2012 22:30 7,8 C 90 % 1027,6 hPa 0,0 mm 1,4 km/h (1 Bft) O-SO 247 0 min 0 W/m 6,3 C 7,8 C 6,1 km/h (2 Bft)
20/01/2012 22:40 7,8 C 90 % 1027,6 hPa 0,0 mm 2,9 km/h (1 Bft) SO 225 0 min 0 W/m 6,3 C 7,8 C 4,0 km/h (1 Bft)
20/01/2012 22:50 7,8 C 90 % 1027,7 hPa 0,0 mm 3,2 km/h (1 Bft) S-SO 202 0 min 0 W/m 6,3 C 7,8 C 4,3 km/h (1 Bft)
20/01/2012 23:00 7,8 C 90 % 1027,7 hPa 0,0 mm 3,6 km/h (1 Bft) O-SO 247 0 min 0 W/m 6,3 C 7,8 C 6,1 km/h (2 Bft)
20/01/2012 23:10 7,8 C 90 % 1027,5 hPa 0,0 mm 4,7 km/h (1 Bft) O-SO 247 0 min 0 W/m 6,3 C 7,4 C 10,4 km/h (2 Bft)
20/01/2012 23:20 7,8 C 90 % 1027,6 hPa 0,0 mm 4,0 km/h (1 Bft) O 270 0 min 0 W/m 6,3 C 7,8 C 4,0 km/h (1 Bft)
20/01/2012 23:30 7,8 C 90 % 1027,4 hPa 0,0 mm 2,9 km/h (1 Bft) SO 225 0 min 0 W/m 6,3 C 7,8 C 4,3 km/h (1 Bft)
20/01/2012 23:40 7,8 C 90 % 1027,4 hPa 0,0 mm 4,0 km/h (1 Bft) O-SO 247 0 min 0 W/m 6,3 C 7,8 C 7,2 km/h (2 Bft)
20/01/2012 23:50 7,8 C 90 % 1027,3 hPa 0,0 mm 5,0 km/h (1 Bft) SO 225 0 min 0 W/m 6,3 C 7,3 C 5,0 km/h (1 Bft)
_ Min-Heure 08:20 15:20 05:00 - 22:10 - - - - 07:40 08:30 22:10
Minimum _ 6,3 C 81 % 1027,0 hPa - 0,0 km/h (0 Bft) - - - - 5,4 C 4,9 C 0,0 km/h (0 Bft)
_ Max-Heure 03:30 06:50 11:20 00:30 13:10 - - 17:30 23:50 03:30 03:30 13:10
Maximum _ 9,9 C 95 % 1029,9 hPa 0,2 mm 12,2 km/h
O-SO (2 Bft)
- - 2 min 0 W/m 9,1 C 9,9 C 25,9 km/h
O-SO (4 Bft)
Moyenne _ 8,6 C 90 % 1027,9 hPa #1,6 mm 3,9 km/h (1 Bft) O-SO - #1:46 h 0 W/m 7,1 C 8,3 C 7,8 km/h (2 Bft)
Saint Bonnet de Bellac- Haute Vienne - France